DW6206 Weather Reports


Display with metric or nautical units.
time (UTC)temp
F
wind
direction
speed
MPH
gust
MPH
rain 1hr
in
rain 24hr
in
rain mn
in
humidity
%
barometer
mb
20260507030954 46 315 0.0 1.0 0.00 0.49 0.00 95 1014.2
20260507025939 46 315 0.0 0.0 0.00 0.50 0.00 94 1014.1
20260507025004 46 315 0.0 0.0 0.00 0.53 0.00 95 1014.1
20260507023957 46 315 0.0 0.0 0.00 0.54 0.00 95 1014.1
20260507022949 46 315 0.0 0.0 0.00 0.55 0.00 94 1014.2
20260507022011 46 315 0.0 0.0 0.00 0.56 0.00 95 1014.2
20260507020947 46 315 0.0 0.0 0.00 0.59 0.00 95 1014.0
20260507020011 46 315 0.0 0.0 0.00 0.60 0.00 95 1013.9
20260507013858 46 315 0.0 0.0 0.00 0.62 0.00 96 1013.7
20260507012909 46 315 0.0 0.0 0.00 0.66 0.00 96 1013.6
20260507011910 46 315 0.0 0.0 0.00 0.68 0.00 96 1013.5
20260507010909 46 292 0.0 0.0 0.00 0.68 0.00 96 1013.5
20260507005900 46 315 0.0 0.0 0.00 0.70 0.00 96 1013.5
20260507004841 46 315 0.0 0.0 0.00 0.73 0.00 97 1013.6
20260507003830 46 292 1.0 3.0 0.00 0.74 0.00 97 1013.5
20260507002838 46 315 0.0 1.0 0.00 0.75 0.00 97 1013.5
20260507000745 46 315 0.0 1.0 0.00 0.80 0.00 98 1013.3
20260506234628 46 292 0.0 1.0 0.00 0.82 0.00 98 1013.5
20260506233654 46 315 1.0 1.0 0.00 0.85 0.00 98 1013.4
20260506232627 46 315 0.0 3.0 0.00 0.85 0.00 98 1013.1
20260506231639 46 315 1.0 3.0 0.00 0.86 0.00 98 1013.3
20260506230658 46 315 0.0 0.0 0.00 0.87 0.00 98 1013.2
20260506225659 46 315 1.0 3.0 0.00 0.88 0.00 98 1013.1
20260506224723 46 315 0.0 1.0 0.00 0.89 0.00 98 1013.0
20260506223700 46 315 0.0 1.0 0.00 0.90 0.00 98 1013.0
20260506222644 46 315 0.0 4.0 0.00 0.92 0.00 98 1012.9
20260506221654 46 315 0.0 1.0 0.00 0.94 0.00 98 1012.8
20260506220644 46 315 0.0 1.0 0.00 0.96 0.00 98 1012.8
20260506214521 46 315 0.0 1.0 0.00 1.01 0.98 98 1012.7
20260506213544 46 292 0.0 1.0 0.00 1.02 0.98 98 1012.4
20260506212600 46 315 0.0 1.0 0.00 1.05 0.98 99 1012.3
20260506211532 46 315 0.0 0.0 0.00 1.07 0.99 99 1012.6
20260506210528 46 315 0.0 1.0 0.00 1.09 0.98 98 1012.4
20260506205540 46 315 0.0 1.0 0.00 1.13 0.99 98 1012.5
20260506204522 46 315 0.0 0.0 0.00 1.15 0.98 99 1012.4
20260506203536 46 315 0.0 0.0 0.00 1.19 0.99 99 1012.4
20260506202507 46 315 0.0 1.0 0.00 1.20 0.99 99 1012.3
20260506201452 46 315 0.0 3.0 0.00 1.21 0.98 99 1012.2
20260506200449 46 292 0.0 4.0 0.00 1.22 0.98 99 1012.4
20260506195503 46 315 0.0 4.0 0.00 1.24 0.98 99 1012.2
20260506194459 46 315 0.0 3.0 0.00 1.26 0.98 99 1012.0
20260506193514 46 315 1.0 3.0 0.00 1.26 0.98 99 1012.0
20260506192500 46 315 0.0 0.0 0.00 1.26 0.98 99 1011.9
20260506191437 46 292 0.0 3.0 0.00 1.26 0.99 99 1011.7
20260506190407 46 315 0.0 5.0 0.00 1.26 0.99 99 1011.5
20260506185406 46 292 1.0 5.0 0.00 1.26 0.99 99 1011.5
20260506184410 46 315 0.0 3.0 0.00 1.26 0.98 99 1011.4
20260506183413 47 0 0.0 4.0 0.00 1.26 0.98 99 1011.3
20260506181202 47 337 0.0 3.0 0.00 1.26 0.98 99 1011.1
20260506175032 48 0 0.0 3.0 0.00 1.26 0.98 99 1010.7
20260506174027 48 67 0.0 3.0 0.00 1.26 0.98 99 1010.7
20260506171936 48 112 0.0 0.0 0.00 1.26 0.98 99 1010.6
20260506165843 48 315 1.0 3.0 0.01 1.26 0.98 99 1010.4
20260506163730 48 315 0.0 0.0 0.00 1.25 0.96 99 1010.4
20260506162754 48 0 0.0 5.0 0.00 1.25 0.96 99 1010.3
20260506161741 48 0 0.0 3.0 0.00 1.24 0.95 98 1010.4
20260506160709 48 337 1.0 3.0 0.00 1.24 0.95 98 1010.2
20260506155653 48 337 0.0 3.0 0.00 1.24 0.95 98 1010.3
20260506154631 48 315 0.0 3.0 0.00 1.24 0.95 98 1010.3
20260506153645 48 45 1.0 3.0 0.00 1.24 0.95 98 1010.2
20260506152621 48 270 0.0 3.0 0.00 1.24 0.95 98 1010.1
20260506151548 48 0 0.0 3.0 0.00 1.24 0.95 98 1010.2
20260506150540 48 337 0.0 3.0 0.00 1.24 0.96 98 1010.1
20260506145541 48 315 0.0 4.0 0.00 1.24 0.95 98 1009.7
20260506144528 48 337 0.0 4.0 0.00 1.24 0.95 98 1009.7
20260506143458 48 337 1.0 3.0 0.00 1.24 0.95 98 1009.7
20260506142428 48 292 0.0 3.0 0.00 1.24 0.95 98 1009.9
20260506140334 47 22 0.0 4.0 0.01 1.24 0.95 98 1009.9
20260506135351 48 45 0.0 1.0 0.00 1.22 0.94 98 1010.0
20260506134400 48 90 1.0 1.0 0.00 1.22 0.94 98 1009.8
20260506133340 48 22 0.0 5.0 0.00 1.22 0.94 98 1009.8
20260506132313 47 0 0.0 5.0 0.02 1.22 0.94 98 1009.7
20260506125111 48 0 0.0 1.0 0.10 1.20 0.92 98 1009.7
20260506124047 48 45 0.0 1.0 0.00 1.18 0.89 98 1009.6
20260506123051 48 67 0.0 3.0 0.00 1.16 0.88 99 1009.5
20260506122034 48 337 0.0 3.0 0.00 1.16 0.88 98 1009.4
20260506121020 48 337 0.0 3.0 0.00 1.16 0.88 99 1009.5
20260506114850 48 90 1.0 5.0 0.04 1.16 0.88 99 1009.3
20260506113830 48 337 0.0 1.0 0.01 1.15 0.87 99 1009.1
20260506111742 48 337 0.0 3.0 0.01 1.14 0.86 99 1009.1
20260506110807 47 45 0.0 3.0 0.03 1.14 0.86 99 1009.0
20260506105822 47 337 1.0 5.0 0.05 1.13 0.85 99 1008.8
20260506104836 47 337 3.0 5.0 0.06 1.13 0.85 99 1009.1
20260506103836 47 337 1.0 3.0 0.03 1.12 0.82 99 1009.0
20260506102828 47 337 0.0 3.0 0.03 1.11 0.81 99 1009.0
20260506100651 48 337 0.0 6.0 0.06 1.08 0.80 99 1008.7
20260506095710 48 315 0.0 5.0 0.07 1.07 0.77 99 1008.7
20260506094702 49 337 0.0 6.0 0.04 1.06 0.76 99 1008.3
20260506093654 49 337 1.0 6.0 0.04 1.05 0.75 99 1008.3
20260506092638 49 337 0.0 1.0 0.02 1.03 0.74 99 1008.2
20260506091645 49 0 0.0 5.0 0.00 1.02 0.73 99 1008.1
20260506090705 48 337 1.0 5.0 0.00 1.02 0.73 99 1008.2
20260506085720 49 337 1.0 3.0 0.00 1.01 0.73 99 1008.0
20260506084717 49 315 0.0 3.0 0.00 1.01 0.72 99 1008.2
20260506083737 49 337 0.0 1.0 0.00 1.01 0.72 99 1007.9
20260506082719 49 45 0.0 3.0 0.00 1.01 0.72 99 1007.9
20260506081649 49 45 1.0 3.0 0.00 1.01 0.72 99 1007.8
20260506080617 49 315 0.0 3.0 0.00 1.01 0.73 99 1007.9
20260506073525 49 315 0.0 1.0 0.01 1.00 0.70 99 1007.9
20260506072518 49 315 0.0 3.0 0.03 1.00 0.70 99 1007.8
20260506071510 49 337 0.0 1.0 0.01 0.99 0.69 99 1007.9
20260506070528 49 337 0.0 3.0 0.02 0.99 0.69 99 1007.8
20260506060419 49 337 0.0 0.0 0.02 0.95 0.66 99 1007.6
20260506051204 48 22 0.0 3.0 0.01 0.93 0.62 99 1007.4
20260506045037 49 270 0.0 1.0 0.05 0.92 0.61 99 1007.3
20260506044057 49 337 0.0 3.0 0.07 0.90 0.60 99 1007.4
20260506043107 48 315 0.0 3.0 0.10 0.89 0.59 99 1007.4
20260506042125 48 45 0.0 1.0 0.03 0.87 0.56 99 1007.3
20260506041131 49 247 0.0 1.0 0.04 0.86 0.55 99 1007.3
20260506040108 49 315 0.0 3.0 0.09 0.86 0.55 99 1007.2
20260506035043 49 315 0.0 3.0 0.08 0.83 0.53 99 1007.3
20260506034042 49 315 0.0 3.0 0.09 0.82 0.51 99 1007.3